Weather History for YBHM - July, 2013

Change the Weather History Date:

Friday, July 12, 2013

  Actual Average Record
Temperature  
Mean Temperature 66 °F -  
Max Temperature 69 °F - - ()
Min Temperature 64 °F - - ()
Cooling Degree Days 2    
Growing Degree Days 16 (Base 50)    
Moisture  
Dew Point 63 °F    
Average Humidity 84    
Maximum Humidity 100    
Minimum Humidity 71    
Precipitation  
Precipitation 0.04 in - - ()
Sea Level Pressure  
Sea Level Pressure 30.18 in    
Wind  
Wind Speed 27 mph ()    
Max Wind Speed 33 mph    
Max Gust Speed -    
T = Trace of Precipitation, MM = Missing Value Source: Averaged Metar Reports

Daily Weather History Graph

Daily Weather History Graph

Search for Another Location

Airport or City:

Trip Planner

Search our weather history database for the weather conditions in past years. The results will help you decide how hot, cold, wet, or windy it might be!

Date:

Astronomy

Jul. 12, 2013 Rise Set
Actual Time 6:40 AM AEST 5:39 PM AEST
Civil Twilight 6:16 AM AEST 6:03 PM AEST
Nautical Twilight 5:49 AM AEST 6:30 PM AEST
Astronomical Twilight 5:22 AM AEST 6:57 PM AEST
Moon 8:57 AM AEST (7/12) 9:01 PM AEST (7/12)
Length of Visible Light 11h 46m
Length of Day
10h 58m
Waxing Crescent, 13% of the Moon is Illuminated
Jul 12
Waxing Crescent
Jul 16
First Quarter
Jul 23
Full
Jul 30
Last Quarter
Aug 7
New

Hourly Weather History & Observations

Time (AEST) Temp. Dew Point Humidity Pressure Visibility Wind Dir Wind Speed Gust Speed Precip Events Conditions
12:00 AM 68 °F 63 °F 80% 30.21 in - SE 33.4 mph - -  
12:00 AM 68.0 °F 62.6 °F 83% 30.21 in - SE 33.4 mph - N/A   Unknown
12:30 AM 68.0 °F 62.6 °F 83% 30.21 in - SE 32.2 mph - N/A   Unknown
1:00 AM 68.0 °F 62.6 °F 83% 30.18 in - SE 29.9 mph - N/A   Unknown
1:30 AM 68.0 °F 62.6 °F 83% 30.18 in - ESE 31.1 mph - N/A   Unknown
2:00 AM 66.2 °F 64.4 °F 94% 30.18 in - ESE 31.1 mph - N/A   Unknown
2:30 AM 68.0 °F 62.6 °F 83% 30.18 in - SE 28.8 mph - N/A   Unknown
3:00 AM 69 °F 64 °F 79% 30.17 in - ESE 32.2 mph - -  
3:00 AM 69.8 °F 64.4 °F 83% 30.15 in - ESE 32.2 mph - N/A   Unknown
3:30 AM 68.0 °F 64.4 °F 88% 30.15 in - SE 26.5 mph - N/A   Unknown
4:00 AM 68.0 °F 62.6 °F 83% 30.15 in - SE 29.9 mph - N/A   Unknown
4:30 AM 69.8 °F 62.6 °F 78% 30.15 in - SE 32.2 mph - N/A   Unknown
5:00 AM 69.8 °F 62.6 °F 78% 30.18 in - ESE 28.8 mph - N/A   Unknown
5:30 AM 69.8 °F 62.6 °F 78% 30.18 in - SE 27.6 mph - N/A   Unknown
6:00 AM 69 °F 62 °F 72% 30.18 in - ESE 31.1 mph - -  
6:00 AM 69.8 °F 62.6 °F 78% 30.18 in - ESE 31.1 mph - N/A   Unknown
6:30 AM 69.8 °F 62.6 °F 78% 30.18 in - SE 28.8 mph - N/A   Unknown
7:00 AM 69.8 °F 62.6 °F 78% 30.18 in - SE 29.9 mph - N/A   Unknown
7:30 AM 69.8 °F 64.4 °F 83% 30.21 in - SE 29.9 mph - N/A   Unknown
8:00 AM 66.2 °F 64.4 °F 94% 30.21 in - SSE 26.5 mph - N/A   Unknown
8:30 AM 66.2 °F 64.4 °F 94% 30.21 in - SSE 23.0 mph - N/A   Unknown
9:00 AM 66 °F 64 °F 93% 30.22 in - SSE 24.2 mph - -  
9:00 AM 66.2 °F 64.4 °F 94% 30.21 in - SSE 24.2 mph - N/A   Unknown
9:30 AM 66.2 °F 64.4 °F 94% 30.21 in - SSE 27.6 mph - N/A   Unknown
10:00 AM 66.2 °F 64.4 °F 94% 30.21 in - SSE 29.9 mph - N/A   Unknown
10:30 AM 66.2 °F 64.4 °F 94% 30.21 in - SSE 26.5 mph - N/A   Unknown
11:00 AM 66.2 °F 64.4 °F 94% 30.21 in - SSE 25.3 mph - N/A   Unknown
11:30 AM 68.0 °F 64.4 °F 88% 30.18 in - SE 26.5 mph - N/A   Unknown
12:00 PM 68 °F 65 °F 87% 30.19 in - SSE 25.3 mph - -  
12:00 PM 68.0 °F 64.4 °F 88% 30.18 in - SSE 25.3 mph - N/A   Unknown
12:30 PM 68.0 °F 64.4 °F 88% 30.18 in - SSE 24.2 mph - N/A   Unknown
1:00 PM 68.0 °F 64.4 °F 88% 30.15 in - SSE 28.8 mph - N/A   Unknown
1:30 PM 68.0 °F 64.4 °F 88% 30.15 in - SSE 27.6 mph - N/A   Unknown
2:00 PM 68.0 °F 64.4 °F 88% 30.15 in - SE 28.8 mph - N/A   Unknown
2:30 PM 68.0 °F 64.4 °F 88% 30.15 in - SSE 26.5 mph - N/A   Unknown
3:00 PM 67 °F 65 °F 92% 30.15 in - SE 28.8 mph - -  
3:00 PM 66.2 °F 66.2 °F 100% 30.15 in - SE 28.8 mph - N/A   Unknown
3:30 PM 66.2 °F 66.2 °F 100% 30.15 in - SE 26.5 mph - N/A   Unknown
4:00 PM 68.0 °F 64.4 °F 88% 30.15 in - SSE 26.5 mph - N/A   Unknown
4:30 PM 68.0 °F 66.2 °F 94% 30.15 in - SSE 28.8 mph - N/A   Unknown
4:42 PM 66.2 °F 62.6 °F 88% 30.15 in - ESE 25.3 mph - N/A   Unknown
5:00 PM 68.0 °F 62.6 °F 83% 30.15 in - SE 26.5 mph - N/A   Unknown
5:30 PM 68.0 °F 60.8 °F 78% 30.15 in - SE 27.6 mph - N/A   Unknown
6:00 PM 69 °F 62 °F 71% 30.16 in - SE 29.9 mph - -  
6:00 PM 69.8 °F 62.6 °F 78% 30.15 in - SE 29.9 mph - N/A   Unknown
6:30 PM 69.8 °F 62.6 °F 78% 30.15 in - SE 27.6 mph - N/A   Unknown
7:00 PM 69.8 °F 62.6 °F 78% 30.18 in - SE 28.8 mph - N/A   Unknown
7:30 PM 68.0 °F 60.8 °F 78% 30.18 in - SE 27.6 mph - N/A   Unknown
8:00 PM 68.0 °F 60.8 °F 78% 30.18 in - SE 26.5 mph - N/A   Unknown
8:30 PM 68.0 °F 60.8 °F 78% 30.18 in - SE 25.3 mph - N/A   Unknown
9:00 PM 69 °F 62 °F 71% 30.21 in - SE 25.3 mph - -  
9:00 PM 68.0 °F 60.8 °F 78% 30.21 in - SE 25.3 mph - N/A   Unknown
9:30 PM 68.0 °F 62.6 °F 83% 30.18 in - SE 26.5 mph - N/A   Unknown
10:00 PM 68.0 °F 60.8 °F 78% 30.18 in - SE 25.3 mph - N/A   Unknown
10:30 PM 68.0 °F 62.6 °F 83% 30.18 in - SE 27.6 mph - N/A   Unknown
11:00 PM 68.0 °F 60.8 °F 78% 30.18 in - SE 25.3 mph - N/A   Unknown
11:30 PM 68.0 °F 62.6 °F 83% 30.18 in - SE 26.5 mph - N/A   Unknown